Probability
2 7 13 14 14 16 21 23 24 25 27 24 19 17 19 20 19 18 15 14 13 13 13 13 12 9 7 6 5 4 3 2 1 0 0 0 0 0 1 1 1 1 1
4 8 13 14 15 19 23 24 24 25 25 23 21 20 19 20 20 19 18 15 14 13 12 12 11 10 9 8 7 5 3 3 2 1 1 1 0 0 1 2 2 2 3
7 11 14 15 19 24 26 26 25 24 24 23 22 21 21 20 19 20 19 17 15 13 11 11 10 10 10 9 9 7 4 3 4 4 4 3 1 1 2 2 3 4 6
12 15 18 20 24 29 30 29 26 25 24 23 22 22 21 19 18 19 19 18 16 14 11 10 10 10 10 10 10 8 6 5 5 6 6 5 4 4 4 4 4 5 4
16 19 23 27 30 34 35 33 30 27 26 24 23 21 20 20 19 19 19 19 18 17 13 11 10 10 10 11 11 9 7 6 6 6 7 7 7 8 7 7 7 6 3
19 21 27 32 36 39 39 36 32 29 28 26 22 20 20 21 20 19 18 19 19 18 15 11 9 9 9 11 11 9 7 6 5 6 7 9 9 9 9 9 9 7 4
18 21 27 35 39 40 39 35 31 29 27 25 22 21 21 20 19 17 15 15 15 15 14 11 9 8 8 8 8 8 7 5 4 5 6 8 9 9 9 8 7 5 4
18 19 25 32 36 36 36 34 30 28 26 24 23 23 22 21 19 15 12 10 11 12 11 10 9 8 7 6 7 8 8 7 5 4 4 5 6 8 9 8 6 5 5
19 21 24 28 31 32 33 33 30 28 26 23 22 22 23 22 20 17 13 11 11 10 8 8 9 8 7 7 8 9 9 9 8 5 3 3 5 7 9 9 7 6 6
21 22 25 28 31 32 32 31 30 28 25 22 20 19 20 21 18 16 15 14 13 11 8 7 7 8 7 7 7 7 8 9 8 6 4 3 4 7 9 10 9 7 6
24 24 27 30 32 32 31 31 30 28 25 21 18 16 16 14 12 12 12 13 13 13 11 9 8 8 7 6 5 5 6 8 7 5 4 3 4 6 7 8 8 7 5
29 28 28 30 31 31 31 31 29 26 23 19 16 13 11 9 8 9 9 9 11 13 13 12 11 11 8 6 6 5 6 8 8 6 5 5 5 6 5 5 6 6 5
31 31 30 30 30 29 29 29 26 22 19 17 14 12 10 9 8 9 8 7 8 11 12 12 12 11 10 10 10 8 9 10 10 9 8 8 9 7 4 4 4 4 5
30 30 30 30 30 29 28 26 23 20 17 15 15 14 12 10 10 9 8 7 7 9 10 10 10 10 10 12 12 10 10 11 11 11 9 9 9 6 4 4 4 4 5
29 29 28 28 28 28 26 23 21 19 17 16 17 17 14 12 10 8 7 6 7 9 9 10 10 9 9 9 9 8 9 8 7 7 7 6 5 4 4 4 4 4 5
28 27 26 25 25 25 23 21 19 18 16 17 19 19 16 12 9 8 7 7 9 9 10 11 11 9 8 6 5 4 4 3 2 2 2 2 3 4 5 6 6 5 4
25 25 25 24 23 21 20 19 18 17 16 17 19 20 18 14 11 10 9 10 10 10 10 11 11 9 6 4 2 1 1 0 0 1 1 1 4 6 5 6 6 5 5
22 24 24 23 21 19 18 18 19 19 17 18 19 18 17 14 13 12 12 11 11 10 9 8 7 5 3 2 0 0 0 0 1 2 2 3 5 6 5 5 5 5 6
19 21 22 21 19 18 17 17 18 19 18 18 18 17 15 14 13 13 13 11 11 10 8 5 3 2 2 1 0 0 0 0 1 2 3 3 4 5 5 5 5 4 4
16 16 18 18 16 16 16 16 16 16 16 15 15 14 13 13 13 14 14 11 10 9 7 3 1 0 1 1 0 0 0 0 0 1 2 3 3 4 5 6 6 4 2
12 13 15 15 13 13 14 13 12 10 10 11 10 9 10 11 12 14 15 13 10 7 5 3 1 0 0 0 0 0 0 0 0 0 2 3 3 3 4 5 5 4 3
9 11 12 12 11 10 11 12 10 7 6 6 6 5 5 7 9 11 13 13 10 7 5 3 1 0 0 0 0 0 0 0 0 0 1 2 3 3 3 3 3 3 3
7 8 9 9 10 11 12 12 9 6 4 4 4 3 3 4 5 6 8 10 11 8 6 4 1 0 0 0 0 0 0 0 0 0 1 1 1 2 2 1 1 1 1
7 7 7 8 11 14 14 12 9 7 6 5 3 1 1 2 1 2 4 6 8 8 6 4 1 0 0 0 0 0 0 0 0 0 0 0 0 1 1 0 0 0 0
8 7 6 9 13 15 14 11 10 9 7 4 2 1 0 0 0 1 2 4 5 5 5 4 2 1 1 0 0 0 0 0 0 0 0 0 0 0 0 0 0 0 0
8 7 6 9 14 15 12 10 10 9 6 3 1 0 0 0 0 0 1 3 3 4 4 4 3 2 2 1 0 0 0 0 0 0 0 0 0 0 0 0 0 0 0
Wind_Speed
5 7 14 14 14 14 14 14 14 15 15 15 15 14 14 14 13 13 13 12 11 10 9 8 7 6 6 5 5 5 4 4 3 3 4 4 5 5 5 6 7 5 7
9 9 14 14 14 14 14 14 14 14 14 15 14 14 14 13 13 12 12 11 10 9 9 8 7 6 6 5 4 4 4 3 3 3 3 3 4 5 5 6 7 4 8
10 9 12 14 14 14 14 14 14 14 14 14 14 14 13 13 12 11 11 10 9 9 8 7 7 5 5 4 4 3 3 2 2 3 2 1 2 5 6 7 7 8 8
11 8 9 14 14 14 13 13 13 13 13 13 13 13 12 12 11 11 10 10 9 8 7 7 6 5 4 3 3 2 2 2 2 2 1 1 2 5 6 7 8 9 9
9 7 9 15 14 13 13 13 13 13 12 12 12 12 11 11 10 10 9 9 8 7 7 6 5 4 3 3 2 2 2 3 3 2 1 2 2 5 7 7 8 9 9
8 7 9 14 13 13 13 12 12 12 11 11 11 11 11 10 10 9 9 8 8 7 6 5 5 4 3 3 3 3 3 4 3 2 2 2 3 5 7 8 8 9 9
8 6 7 13 12 12 12 12 11 11 10 10 10 10 9 9 8 8 8 7 7 6 6 5 4 4 4 4 4 4 4 5 2 2 2 3 4 6 7 7 8 8 10
8 6 6 11 12 12 12 11 10 9 9 8 8 8 8 7 7 7 7 7 7 6 6 5 5 5 5 4 4 5 5 5 3 3 3 3 5 6 7 7 7 8 10
6 6 5 5 7 10 10 10 9 8 8 7 7 7 6 7 7 7 6 6 6 6 6 6 5 5 5 5 4 5 5 5 2 2 3 2 5 6 7 7 7 8 9
5 5 5 5 4 4 5 8 8 8 7 7 7 6 6 6 6 6 5 6 7 7 7 6 6 6 5 5 4 4 4 3 2 2 2 3 5 6 7 7 7 8 8
4 3 4 4 4 3 3 5 6 7 6 6 5 6 5 2 2 3 5 6 7 7 6 6 6 6 5 4 4 4 3 1 2 2 3 5 7 7 7 7 7 8 8
6 4 3 4 4 4 3 3 2 2 2 3 2 2 1 1 1 2 4 6 6 6 6 6 6 5 4 2 3 4 1 2 3 3 3 7 7 7 7 7 7 8 9
5 5 4 4 4 4 2 2 1 1 1 2 2 2 1 1 1 1 1 2 3 4 2 3 3 2 1 2 2 2 2 2 2 2 4 7 7 7 8 8 8 8 9
4 5 4 4 4 4 3 2 2 1 1 1 1 2 2 1 1 1 1 1 1 1 1 1 1 2 2 2 3 3 3 2 2 2 4 7 6 6 7 8 8 9 9
4 4 4 4 4 3 3 2 2 2 2 2 2 2 2 2 2 1 1 1 1 1 1 1 2 2 2 3 3 3 3 4 4 4 3 7 7 7 8 9 9 9 9
4 4 3 4 4 4 3 3 2 2 2 2 2 2 3 2 2 1 1 1 1 2 2 2 2 2 2 2 3 3 3 3 4 4 4 4 7 8 9 9 10 10 10
4 3 4 4 3 3 3 3 2 2 2 2 2 2 3 3 3 2 2 2 2 1 1 1 1 1 2 2 3 3 3 4 4 4 4 3 4 7 9 9 10 10 10
3 3 3 3 3 3 3 2 2 2 2 2 2 2 3 3 3 3 2 2 2 1 1 1 1 1 1 2 2 3 2 3 4 4 4 4 3 4 6 9 9 9 10
2 2 2 2 3 3 2 2 1 1 1 1 2 2 2 3 3 3 3 2 2 1 1 1 1 1 2 2 2 3 2 3 4 4 4 4 4 4 4 6 9 9 9
2 2 2 2 1 1 1 1 1 0 1 1 1 2 2 2 3 3 2 3 2 1 1 1 1 1 1 2 3 3 3 3 3 3 4 3 3 4 4 4 4 5 8
2 2 2 2 1 1 1 1 1 1 1 1 1 2 2 2 2 2 3 2 2 2 2 2 1 1 1 1 1 2 3 3 2 3 3 2 3 3 3 3 3 3 4
0 1 2 2 2 1 1 1 1 0 1 1 1 2 2 2 2 2 3 3 3 2 2 2 2 1 1 1 1 0 2 3 2 2 2 2 2 2 3 3 3 3 3
1 0 0 2 2 2 1 1 1 1 2 1 2 2 2 2 2 2 2 3 3 3 3 3 3 3 2 1 2 2 1 2 2 2 2 2 2 2 2 3 3 3 4
1 1 0 1 1 1 2 2 2 1 1 2 2 2 2 2 2 2 2 2 2 3 3 3 3 3 3 2 1 2 2 2 2 2 2 2 2 3 3 3 3 4 4
1 1 0 1 1 1 2 2 2 1 1 1 1 1 2 2 2 2 2 2 2 2 3 3 3 3 3 3 2 2 2 2 3 3 3 3 3 3 3 3 3 3 4
2 1 1 1 1 1 1 2 2 2 1 1 1 2 2 2 2 2 2 2 2 2 3 3 3 3 3 3 3 2 2 2 2 3 3 3 4 4 3 3 3 3 3
Wind_Direction
158 159 158 153 149 144 138 133 129 126 124 124 126 127 129 132 135 139 142 144 144 145 146 145 143 141 136 131 127 129 134 141 154 171 182 187 191 193 191 185 179 178 175
148 154 158 154 150 147 143 139 135 132 131 131 132 134 135 136 138 140 142 145 146 148 148 149 148 145 141 139 135 133 136 146 164 188 196 195 202 202 195 189 182 177 177
141 151 156 154 151 148 145 142 140 138 136 137 139 141 142 142 143 145 147 149 151 153 154 154 153 152 148 146 146 149 154 166 179 198 191 178 219 213 203 195 188 183 180
141 145 153 154 151 149 146 145 144 143 143 144 145 147 148 149 151 153 154 156 157 159 160 160 159 159 160 161 168 175 188 199 202 207 171 208 228 215 208 204 196 192 191
136 142 157 155 153 151 149 148 149 149 149 149 150 151 153 155 157 159 160 161 162 163 165 168 170 169 174 182 194 204 220 232 227 219 211 233 238 226 213 212 205 198 196
136 143 159 155 155 152 151 152 153 154 155 155 155 155 158 160 161 163 165 167 170 172 176 181 185 187 197 205 215 224 238 246 232 226 240 242 233 226 218 213 210 204 199
140 144 156 155 157 157 157 156 157 158 158 160 161 162 164 164 168 172 175 178 182 185 190 199 204 208 215 222 231 238 243 248 223 223 237 238 231 229 223 219 215 208 204
144 144 150 159 161 162 162 162 162 162 161 162 164 169 171 174 180 185 188 193 198 204 211 219 224 225 231 232 239 246 251 254 242 235 237 237 237 234 228 227 223 217 211
136 138 140 150 166 169 168 164 163 162 165 168 170 174 178 187 195 199 208 214 218 223 228 233 237 237 243 244 248 256 258 258 222 229 243 240 244 238 231 229 224 219 216
129 140 143 148 156 158 166 170 168 168 172 177 178 185 189 196 203 209 223 233 234 239 240 242 246 249 249 252 259 261 260 260 231 235 245 244 245 243 237 231 225 221 220
154 158 155 154 151 153 162 173 172 176 182 186 187 196 200 203 214 227 238 241 243 244 247 252 255 258 261 264 266 262 257 232 235 240 240 246 244 244 242 235 230 224 224
180 178 167 163 162 160 175 164 158 170 171 176 170 188 187 189 230 236 260 255 258 258 259 260 262 262 259 262 267 268 253 237 228 236 241 247 246 244 246 241 236 231 231
177 175 176 176 172 169 169 159 157 162 163 171 180 183 174 178 234 256 265 279 279 273 279 282 272 261 252 245 247 247 244 242 240 244 248 250 248 246 248 245 241 237 235
158 173 170 177 169 170 167 175 168 172 169 178 188 183 179 187 207 236 243 254 261 277 283 287 278 271 260 261 256 250 246 246 248 247 252 258 253 251 251 245 241 241 238
169 177 175 171 172 175 174 185 179 184 182 187 190 194 188 194 209 228 242 244 248 247 245 255 265 271 267 266 263 259 256 251 251 250 255 257 256 256 254 251 246 245 243
193 186 177 178 179 173 178 187 191 188 181 182 202 205 193 197 200 209 235 237 241 241 236 227 244 254 261 259 269 269 263 262 257 258 254 263 262 256 254 254 252 251 250
190 177 177 178 168 173 183 189 190 189 180 193 213 208 198 198 201 202 218 234 240 242 240 225 247 267 275 278 276 273 262 260 260 261 256 251 258 259 259 260 261 259 255
177 169 174 169 162 179 187 186 184 192 193 201 209 207 210 210 204 201 217 237 241 229 228 218 222 254 275 282 285 279 266 264 265 262 258 251 248 257 265 265 259 256 255
177 168 164 159 172 178 175 173 168 176 201 215 214 215 223 223 214 204 221 237 229 213 230 242 206 223 256 267 270 266 268 268 266 264 261 254 248 250 253 266 262 259 257
147 138 143 147 166 159 139 124 102 132 232 234 231 232 229 227 218 209 226 232 212 210 232 239 238 230 244 268 281 281 273 265 256 255 259 259 254 254 253 255 260 262 259
97 121 140 133 152 149 152 160 177 225 254 268 261 251 245 242 232 220 230 227 212 213 226 225 217 244 258 256 297 310 300 279 279 264 255 256 260 261 256 251 250 252 264
83 139 150 151 162 188 197 169 193 224 269 280 287 283 261 250 245 237 229 229 214 211 233 226 203 207 235 191 175 316 323 325 317 290 286 269 274 273 272 271 261 255 257
334 288 163 185 190 184 145 97 56 37 24 0 325 305 296 282 268 254 244 238 226 211 228 232 209 199 218 227 188 180 196 255 304 306 294 295 293 287 290 288 274 265 257
331 10 127 182 171 163 154 156 156 178 242 250 257 267 295 289 273 260 252 241 237 225 227 235 218 202 196 223 220 215 218 206 239 296 299 292 287 275 277 276 278 274 265
6 15 120 95 109 163 179 183 188 209 234 269 295 293 304 304 296 286 266 249 242 235 234 232 221 210 202 209 212 206 218 229 229 238 278 297 298 275 266 266 265 267 266
15 16 21 67 87 206 185 196 192 201 231 268 292 288 293 296 296 298 290 272 255 245 240 231 222 218 218 214 215 209 207 209 216 221 249 274 286 289 285 270 259 260 262